Temp
25 24 24 24 24 24 24 24 24 24 24 24 24 24 24 24 23 23 23 23 23 23 23 23 23 23 23 23 23 23 23 23 23 22 22 22 22 22 21 21 22 22 22 23 22 22 22 22 22 22 21 21 22 22 22 22 22 21 21 20 20 20 21 21 21 21 21 21 21 21 21 20 20 20 20 20 20 20 21 21 21 21 20 20 20
24 24 24 24 24 24 24 24 24 24 24 24 24 24 24 24 23 23 23 23 23 23 23 23 24 23 23 23 23 24 23 23 23 23 23 23 22 22 21 21 21 22 22 22 22 22 23 22 22 22 22 21 21 21 22 22 22 22 21 21 21 20 20 20 21 21 21 21 21 21 21 21 21 20 20 20 20 20 21 21 21 21 21 20 20
24 24 23 23 23 24 24 24 23 23 23 23 23 23 23 23 23 22 22 22 23 22 22 23 23 23 23 23 23 23 23 23 23 23 23 23 23 22 22 21 21 22 22 22 22 22 23 22 22 22 22 22 21 21 21 21 22 22 21 21 21 21 21 20 20 21 21 21 21 21 21 21 21 21 21 20 20 20 20 21 21 21 21 21 21
23 23 23 23 23 24 24 23 23 23 23 23 23 23 23 23 22 22 22 22 23 23 22 23 23 23 23 23 23 23 23 23 23 24 24 24 23 23 22 22 22 22 22 22 22 22 22 22 22 23 22 22 22 21 21 21 21 21 21 21 21 21 21 21 21 21 21 21 21 21 21 21 21 21 21 21 21 20 20 20 20 21 21 21 21
23 23 23 23 23 24 24 23 23 23 23 22 22 23 23 23 22 22 22 22 23 23 23 23 24 23 23 24 23 23 23 23 23 24 24 24 24 23 23 23 23 22 22 22 22 22 22 22 22 23 23 22 22 22 21 21 21 21 21 21 21 21 22 21 21 21 21 21 21 21 22 22 21 21 21 21 21 21 21 21 21 21 21 21 21
23 22 23 23 24 24 24 23 22 22 22 22 22 23 23 23 23 22 22 22 23 23 23 23 23 23 23 23 23 23 23 23 23 23 23 24 24 24 24 24 23 23 23 22 22 22 22 22 22 23 23 23 22 22 21 21 21 21 21 21 21 21 21 21 21 21 21 21 21 21 21 22 22 22 22 21 21 21 21 21 21 21 21 21 21
23 22 23 24 24 24 23 23 22 22 22 22 22 23 23 23 23 22 23 23 23 23 23 23 23 23 23 23 23 23 23 23 23 23 23 23 23 23 24 24 24 24 23 23 23 22 22 23 22 23 22 22 22 22 21 21 21 21 21 21 21 21 21 21 21 21 21 21 21 21 21 21 22 22 22 22 22 22 21 21 21 21 21 21 21
23 22 23 23 24 24 23 22 22 22 22 22 22 23 23 22 22 22 23 23 23 23 23 23 23 23 23 23 23 23 23 24 23 23 23 23 23 23 23 23 23 23 23 24 23 22 22 23 22 22 22 22 22 22 21 21 21 21 21 21 21 21 21 21 21 21 21 21 21 21 21 21 21 22 22 22 22 22 22 22 22 22 22 21 21
23 23 22 23 24 23 22 22 22 22 22 22 22 23 23 22 22 22 22 22 22 23 23 23 23 23 23 23 23 23 23 23 23 23 23 23 23 23 23 23 23 23 23 24 24 23 22 22 22 22 22 22 22 22 22 21 20 20 20 20 21 21 21 21 21 21 21 21 21 21 21 21 21 21 21 22 22 22 22 22 22 22 22 22 22
23 23 22 23 23 23 22 22 22 22 22 22 22 22 22 22 22 22 21 22 22 23 23 23 23 23 23 23 23 23 23 23 23 23 23 24 23 23 23 23 23 22 23 24 24 23 23 22 22 22 22 22 22 22 22 21 21 20 20 20 20 21 21 21 21 21 21 21 21 21 21 21 21 21 21 21 21 21 21 22 22 22 22 22 22
23 23 22 22 22 22 22 22 22 22 22 22 22 22 22 22 22 22 21 21 22 22 22 23 23 23 23 23 23 23 23 23 23 23 23 24 23 24 24 24 23 23 22 23 23 23 22 22 22 22 21 21 22 22 22 21 21 20 20 20 20 20 20 20 20 20 21 21 20 20 21 21 21 21 21 21 21 21 21 21 21 21 21 21 21
23 22 22 22 22 22 22 22 22 22 22 22 23 22 22 21 21 21 21 21 22 22 22 22 23 23 23 23 23 22 22 22 23 23 23 24 24 24 24 24 24 23 23 22 22 22 22 22 22 22 21 21 21 21 21 21 21 21 20 20 20 20 20 20 20 20 20 20 20 20 21 21 21 21 21 21 21 21 21 21 21 21 21 21 21
22 22 22 21 22 22 22 22 22 22 22 22 22 22 21 21 21 21 21 22 22 22 22 22 23 23 24 24 23 22 22 22 23 23 24 24 24 23 24 24 24 23 23 22 22 22 22 22 22 22 21 21 21 21 21 21 20 21 20 20 20 20 20 20 20 20 20 20 20 21 21 21 21 21 20 20 21 21 21 21 21 20 20 21 21
22 22 22 21 22 22 22 22 22 21 21 21 21 21 21 21 21 21 22 22 22 22 22 22 23 24 24 24 24 23 23 23 24 24 24 24 24 24 23 24 23 23 23 23 22 22 22 22 21 21 21 21 21 21 20 20 20 20 20 19 19 19 20 20 20 20 20 20 21 21 21 20 20 20 20 20 20 21 21 21 21 21 21 20 21
22 22 22 22 22 22 22 22 21 21 21 21 21 21 21 21 21 21 22 22 22 22 21 22 23 24 23 23 24 24 23 23 24 24 24 24 24 24 23 23 23 22 22 23 23 22 21 21 21 20 20 21 21 21 21 20 19 19 19 19 19 19 19 19 19 20 20 20 20 21 20 20 20 20 20 20 20 20 20 20 20 21 21 21 20
22 22 22 22 22 22 22 22 21 21 21 21 22 22 22 21 21 21 21 22 23 23 22 21 22 23 23 23 24 24 24 24 24 24 24 24 24 24 23 23 22 22 22 22 22 22 21 21 20 20 20 20 20 21 21 20 19 19 19 19 19 19 19 19 19 19 20 20 20 20 20 20 20 20 20 20 20 20 20 20 20 20 21 21 21
23 22 22 22 22 22 22 22 22 21 21 22 22 22 22 21 21 21 21 22 23 23 22 22 22 22 23 23 23 23 24 24 24 23 24 24 24 24 23 23 22 21 21 21 21 22 22 21 21 20 20 20 20 20 20 20 20 19 19 19 19 19 19 19 19 19 20 20 19 19 20 20 20 20 20 20 20 20 20 20 20 20 20 21 21
23 23 23 22 22 22 22 22 22 22 21 22 22 22 22 21 21 21 21 21 22 23 23 22 22 21 22 22 22 22 23 23 23 23 24 24 24 24 23 23 22 22 22 21 21 22 22 21 21 21 20 20 20 20 20 20 19 19 19 19 20 19 19 19 19 19 19 19 19 19 19 19 19 19 19 20 20 20 20 20 20 20 20 20 20
23 23 22 22 22 22 22 22 22 22 22 22 22 22 21 21 21 21 21 21 21 22 23 23 22 22 22 22 22 22 22 22 23 23 23 23 24 24 24 23 23 22 22 22 22 21 21 21 21 21 20 20 20 20 20 20 19 19 19 20 20 19 20 20 20 19 19 20 20 19 19 19 19 19 19 19 19 20 20 20 20 20 20 20 20
23 23 22 22 22 22 22 22 22 22 22 22 22 22 21 21 21 21 21 21 21 22 22 22 23 22 22 21 21 21 21 22 22 22 23 23 24 24 24 24 23 23 22 22 22 21 21 21 20 21 21 20 20 20 20 20 20 19 19 19 20 19 20 20 20 20 20 20 20 20 20 19 19 19 19 19 19 19 19 19 19 19 20 20 20
23 23 22 22 22 22 22 22 23 22 22 22 22 22 22 21 21 21 21 21 21 21 21 22 22 23 22 21 21 22 22 22 22 22 22 22 23 24 24 24 23 23 22 22 22 21 21 21 20 21 21 21 20 20 20 20 20 19 19 19 20 19 19 19 20 20 20 20 20 20 20 20 20 20 20 19 19 19 19 19 19 19 20 20 20
23 22 22 22 22 22 23 23 23 23 22 23 23 22 22 21 21 21 21 21 21 21 21 21 21 22 21 21 21 22 22 23 23 22 22 22 22 23 24 24 24 23 23 22 22 21 21 21 21 21 21 21 21 20 20 20 19 19 19 19 19 19 19 19 19 19 20 20 20 20 20 20 20 20 20 20 20 19 19 19 19 19 19 20 20
23 23 22 22 22 22 23 23 23 22 22 22 22 22 22 22 21 21 21 21 21 21 21 21 21 21 21 21 22 22 22 23 23 23 22 23 23 23 24 24 23 23 23 22 21 21 21 21 21 21 21 21 21 20 20 19 19 19 19 19 19 19 19 19 19 19 19 20 20 20 20 20 20 20 20 20 20 20 20 20 19 19 19 19 20
23 23 23 23 23 23 23 23 22 22 22 22 22 22 22 22 21 21 21 21 21 21 21 21 21 21 21 22 22 22 22 22 22 22 22 22 22 22 23 23 23 23 23 22 21 21 21 21 21 21 21 21 20 20 19 19 19 19 19 19 19 19 19 19 19 19 19 19 19 19 19 19 19 19 19 19 19 19 19 20 19 19 19 20 20
24 24 24 24 23 23 22 22 22 22 22 22 22 22 22 22 21 21 21 21 21 21 21 21 21 21 22 22 22 22 22 22 22 22 22 22 21 22 23 23 23 23 22 22 22 21 21 21 21 21 21 20 20 20 19 20 20 19 19 19 19 19 19 19 19 19 19 19 19 19 19 19 19 19 19 19 19 19 19 19 19 19 19 19 20
24 24 24 23 23 22 22 22 22 21 21 21 21 21 21 21 21 21 21 21 21 21 21 21 22 21 22 22 22 22 22 22 22 22 22 22 22 22 22 22 22 23 23 22 22 22 22 21 21 21 20 20 20 20 19 20 20 19 19 19 18 19 19 19 19 19 19 19 19 19 19 19 19 19 19 18 18 18 18 18 18 19 19 19 19
24 24 23 23 23 22 22 22 22 21 21 21 21 21 21 21 21 21 21 21 21 21 21 21 21 21 21 21 21 22 22 22 22 22 22 22 22 22 22 21 21 22 23 23 22 23 23 22 21 21 21 20 20 20 19 19 19 19 18 18 18 18 18 19 19 19 19 19 19 19 19 19 19 19 19 18 18 18 18 18 18 18 18 18 18
24 23 23 23 23 22 22 22 21 21 21 21 21 21 21 21 21 21 21 21 21 21 21 21 21 21 21 21 21 21 21 21 21 22 21 21 21 21 21 21 21 21 22 22 23 23 23 23 22 22 21 20 20 20 19 19 19 18 18 18 19 18 18 18 18 19 19 19 19 19 19 19 19 19 19 18 18 18 18 18 17 17 17 17 18
23 23 23 23 22 22 22 22 21 21 21 21 21 21 21 21 21 21 21 21 21 21 21 21 21 21 21 21 21 21 21 21 21 21 21 21 20 20 20 21 21 21 21 21 22 23 23 23 23 22 21 19 19 19 19 19 19 18 18 18 18 18 18 18 18 19 19 19 19 19 19 19 19 19 19 18 18 18 17 17 17 17 17 17 17
23 23 23 22 22 22 22 22 22 21 21 21 21 21 21 21 21 21 21 21 21 21 21 21 21 21 21 21 21 21 21 21 21 21 21 20 20 20 20 21 20 20 21 21 21 22 22 22 22 22 21 20 19 19 19 19 19 18 18 18 18 18 18 18 18 19 19 19 19 19 19 19 19 19 18 18 18 18 18 17 17 17 17 17 17
23 23 23 23 22 22 22 22 22 21 21 21 21 21 21 21 21 21 21 21 21 21 21 21 21 21 21 21 21 21 21 21 21 21 21 20 20 21 21 21 20 20 20 20 21 21 22 22 22 21 21 20 20 20 19 19 19 18 18 18 18 18 18 18 19 19 19 19 19 19 19 19 19 19 18 18 18 18 18 17 17 17 17 18 18
23 23 23 23 22 22 22 22 22 22 21 21 21 21 21 21 21 21 22 22 21 21 21 21 21 21 21 21 21 21 21 21 21 21 20 20 20 21 21 21 21 20 20 20 20 21 21 21 21 21 20 20 20 19 19 19 19 18 18 18 18 18 18 18 18 18 18 18 18 18 19 19 19 18 18 18 18 18 18 17 17 17 17 17 17
23 23 23 22 22 22 22 22 22 22 21 21 21 21 21 21 21 21 21 21 21 21 21 21 21 21 21 21 21 21 21 21 20 21 21 21 21 21 20 20 20 20 20 20 20 20 21 21 21 21 20 20 20 19 19 19 19 19 18 18 18 18 18 18 18 18 18 18 18 18 18 18 19 18 18 18 18 18 18 17 17 17 17 17 17
23 23 22 22 22 21 22 22 21 21 21 21 21 21 21 21 21 21 21 21 21 21 21 21 21 21 21 21 21 21 21 21 20 21 21 21 21 21 20 20 20 20 20 20 20 20 20 20 20 20 20 20 20 20 19 19 19 19 19 19 18 18 18 18 18 19 19 19 18 18 18 18 18 18 18 18 18 17 17 17 17 17 17 17 17
23 23 23 22 22 22 21 21 21 21 21 21 21 21 21 21 21 21 21 21 21 21 21 21 21 21 21 21 21 21 21 21 21 21 21 21 21 21 20 20 20 20 20 20 20 20 20 20 20 20 21 20 20 20 19 19 19 19 18 18 18 18 19 18 18 19 19 18 18 18 18 18 18 18 17 17 17 17 17 17 17 17 17 17 17
23 23 23 22 22 22 21 21 21 21 20 20 21 21 21 21 21 21 21 21 21 21 21 21 21 21 21 21 21 21 22 22 22 21 21 21 20 20 20 20 20 20 20 20 20 20 20 20 20 20 20 20 20 20 19 19 19 19 19 18 18 18 18 18 18 18 18 18 18 18 18 18 18 18 17 17 17 17 17 17 17 17 17 17 17
23 23 23 22 22 21 21 21 21 20 20 20 20 21 21 21 21 21 21 21 21 21 21 21 21 21 21 21 21 22 22 22 22 22 21 21 21 20 20 20 20 20 20 20 20 19 19 19 20 20 20 20 20 19 19 19 19 19 19 19 19 18 18 18 18 19 18 18 18 18 18 18 18 18 18 18 17 17 17 17 17 17 17 17 17
23 23 22 22 21 21 21 21 21 20 20 20 20 21 21 21 21 21 21 21 21 21 21 21 21 21 21 21 21 21 22 22 22 22 21 21 21 21 20 20 20 20 20 20 20 20 19 19 19 19 19 19 19 19 19 19 19 19 19 19 19 19 19 19 19 19 19 19 18 18 18 19 18 18 18 18 18 17 17 17 17 17 17 17 17
23 22 22 22 22 21 20 20 20 20 20 20 20 20 21 21 21 21 21 21 21 21 21 21 21 21 21 21 21 22 22 22 22 21 21 21 21 21 20 20 20 20 20 20 20 20 20 20 19 19 19 19 19 19 19 19 19 19 19 19 19 19 19 19 19 19 19 19 18 18 18 18 18 18 18 18 18 18 18 18 18 17 17 17 17
23 22 22 22 22 21 20 20 20 21 20 20 20 20 20 20 21 21 21 21 21 21 21 22 21 21 21 21 22 22 22 21 21 21 21 21 21 21 21 21 20 20 20 20 20 20 20 20 20 19 19 19 19 19 20 19 19 19 19 19 19 19 19 19 19 18 18 18 18 19 19 19 19 19 19 19 18 18 18 18 18 18 18 18 18
23 22 22 23 23 21 20 20 20 21 21 20 20 20 20 20 20 20 21 21 21 21 21 22 22 21 21 21 21 22 21 21 21 21 21 21 20 20 20 20 20 20 20 19 19 20 20 19 19 19 19 19 19 19 20 20 20 19 19 19 19 19 19 18 18 18 18 18 18 19 19 18 18 18 19 18 18 18 18 18 18 18 19 18 18
21 21 22 23 22 21 20 19 19 20 21 21 21 20 20 20 20 20 21 21 21 21 21 21 21 21 21 21 21 21 21 21 21 20 20 21 21 20 20 20 20 19 19 19 19 19 19 19 19 19 19 19 20 19 19 20 19 19 19 18 18 18 18 18 18 18 18 18 18 18 18 18 18 18 18 18 18 18 18 19 19 19 19 18 18
21 22 22 22 21 20 19 19 19 19 20 21 21 21 21 21 20 21 21 21 21 21 21 21 21 21 21 21 21 21 20 19 20 20 20 20 20 20 20 20 19 19 18 18 19 19 19 19 19 19 19 19 19 19 19 19 19 19 18 18 18 18 17 17 18 18 18 18 18 17 18 18 18 18 18 18 18 18 19 19 19 19 18 18 18
22 21 21 21 20 19 19 19 20 20 20 21 21 21 21 21 21 21 20 20 20 20 21 21 21 21 21 20 20 20 19 19 19 19 19 19 19 19 19 19 19 19 19 18 18 18 18 18 19 19 19 19 19 19 19 19 18 18 17 17 17 17 17 17 17 18 18 17 17 17 17 17 17 18 18 18 18 19 19 19 19 18 18 18 17
21 21 20 19 19 19 19 20 20 20 21 21 21 21 21 21 21 20 20 20 20 20 20 20 20 20 20 19 19 19 19 19 18 18 19 19 19 18 18 19 19 19 19 18 18 18 17 18 18 18 18 18 18 18 18 17 17 16 16 16 16 16 17 16 16 17 17 16 16 17 17 17 18 18 18 18 19 19 19 19 18 18 17 17 17
21 20 19 19 19 19 19 20 20 20 20 20 21 21 21 21 20 20 20 20 20 19 20 20 19 19 19 19 19 19 19 19 18 18 19 19 18 17 18 18 19 19 19 19 18 18 17 16 17 17 17 17 17 17 16 16 16 16 16 16 16 16 16 16 16 16 16 16 17 17 17 18 18 18 19 19 19 19 18 18 18 17 17 16 16
20 20 19 19 19 19 19 20 20 20 19 20 20 21 20 20 20 20 20 20 20 20 20 19 19 19 19 19 19 19 18 18 18 18 19 18 18 18 18 18 19 19 19 19 18 18 17 16 16 17 17 16 16 15 15 15 15 15 15 15 15 15 15 15 15 16 17 17 17 18 18 18 18 19 19 19 19 18 18 17 17 16 16 16 15
20 20 20 20 19 20 20 19 19 19 19 20 20 20 20 20 20 20 20 20 20 19 19 19 19 19 19 19 19 18 18 18 18 19 18 18 17 17 18 18 18 18 18 18 18 17 17 17 16 16 15 15 15 14 14 14 13 13 14 14 14 14 15 15 16 17 17 18 18 18 18 18 18 18 19 18 18 18 17 16 16 15 15 15 15
21 20 20 20 20 20 19 19 19 19 19 20 20 20 20 20 20 21 20 19 19 19 19 19 19 19 20 20 19 18 18 18 18 18 18 17 17 17 17 18 18 18 18 18 18 17 17 16 16 15 15 14 14 14 14 14 14 13 13 14 14 15 16 16 17 17 18 18 18 18 18 18 18 18 18 18 17 17 16 15 15 15 15 15 16
21 21 21 20 19 19 18 18 19 19 19 20 20 20 20 20 21 21 20 19 19 19 19 20 19 19 19 19 19 18 18 17 17 17 17 17 16 16 17 17 17 17 18 18 18 18 17 16 15 15 15 15 14 14 14 14 15 14 13 13 14 16 16 16 17 17 18 18 18 17 17 17 17 17 17 17 16 16 15 15 14 15 15 16 16
20 20 20 20 20 19 19 19 19 19 19 20 20 20 20 21 22 21 20 19 20 19 19 19 18 18 17 18 18 18 17 17 17 17 16 16 16 16 16 17 17 17 17 17 17 17 16 15 15 15 15 15 15 15 15 15 15 15 14 14 15 15 16 16 17 17 17 18 18 17 16 16 16 16 16 15 15 15 14 14 14 14 15 16 16
Height
858 858 858 858 858 858 858 858 858 859 858 858 858 858 858 858 858 858 858 858 857 856 856 855 855 854 854 853 852 851 851 850 849 849 848 848 848 847 846 846 846 846 847 848 848 849 849 850 851 852 853 854 854 855 856 857 858 860 861 862 863 864 865 865 866 866 867 867 868 869 870 870 871 872 873 874 874 875 876 876 877 877 878 878 878
857 857 857 857 857 857 857 858 858 858 858 858 858 858 858 858 858 858 858 857 856 856 855 854 854 853 853 852 852 851 850 849 849 848 848 847 847 846 845 845 845 845 846 846 847 848 848 849 850 850 851 852 853 854 856 856 857 858 859 860 862 863 864 864 865 865 866 866 867 867 868 869 870 870 871 872 873 874 874 875 875 876 876 877 877
856 856 856 856 856 856 856 856 856 857 857 857 858 858 857 857 857 857 857 856 856 855 854 854 853 853 852 851 851 850 850 849 848 847 847 847 846 846 845 844 844 844 845 845 846 846 847 848 848 849 850 851 852 854 855 856 857 857 858 859 860 861 862 863 864 864 865 865 865 866 867 867 868 869 870 870 871 872 872 873 874 874 875 876 876
855 855 855 855 855 855 855 855 855 856 857 857 857 857 856 856 856 856 856 855 855 854 853 853 852 852 851 851 850 850 849 848 848 847 846 846 846 845 845 844 844 844 844 844 845 845 846 846 847 848 849 850 851 852 853 854 855 856 857 858 859 859 860 861 862 863 863 864 864 864 865 866 866 867 868 869 869 870 871 871 872 873 873 874 875
854 854 855 855 855 855 854 854 855 855 856 856 855 856 855 855 855 855 855 854 854 853 853 852 851 851 850 850 849 849 848 848 847 846 846 846 845 845 845 845 844 843 843 843 844 844 844 845 846 846 847 848 850 850 851 852 853 855 856 857 857 858 858 859 860 861 861 862 863 863 863 864 865 865 866 867 868 868 869 870 870 871 872 872 873
853 854 854 854 854 854 854 854 854 854 854 855 855 855 854 854 854 854 854 853 853 852 852 851 851 850 850 849 849 848 847 847 847 846 846 845 845 845 844 844 844 843 843 842 843 843 843 844 844 845 845 847 848 849 850 851 852 853 854 855 856 857 857 858 858 859 859 860 861 861 862 862 863 864 864 865 866 866 867 868 869 869 870 871 871
852 853 853 854 853 853 853 853 853 853 854 854 854 854 854 853 853 853 853 853 852 852 851 851 850 850 849 849 848 848 847 846 846 846 846 845 845 844 844 843 843 843 843 842 842 842 842 843 843 844 844 845 846 847 848 849 850 851 852 853 854 855 856 857 857 857 857 858 859 860 860 860 861 862 862 863 863 864 865 866 867 867 868 869 869
851 852 853 853 853 852 852 852 852 853 853 853 853 853 853 852 852 852 852 852 852 851 851 850 850 850 849 848 848 847 846 846 846 845 845 845 844 844 844 843 842 842 842 842 842 842 842 842 842 842 843 844 844 845 846 847 848 849 850 851 852 853 854 854 854 855 855 856 857 858 859 859 859 860 861 861 861 862 862 863 864 865 866 867 868
850 850 851 852 852 852 852 851 851 852 852 852 852 852 852 852 852 852 852 852 852 851 850 850 849 849 849 848 848 847 846 846 846 845 845 845 844 844 843 842 842 842 841 841 842 841 841 841 842 842 842 842 843 844 845 845 847 847 848 849 850 851 851 852 852 853 854 855 855 856 857 858 858 858 858 859 860 860 860 861 862 863 864 865 866
848 849 849 851 851 851 851 851 851 851 851 851 851 851 851 852 852 852 852 852 852 851 850 850 850 849 848 848 848 847 846 846 846 845 845 844 844 843 843 842 842 841 841 841 841 841 841 841 841 841 841 842 842 843 843 844 845 845 846 846 847 848 849 849 850 851 852 853 854 854 856 856 857 857 857 857 858 859 859 859 860 860 862 863 863
847 847 848 849 850 850 850 850 850 850 851 851 851 851 851 851 851 851 851 851 851 851 850 850 850 849 848 848 848 847 847 846 846 845 845 844 844 843 842 843 842 842 842 841 841 841 841 841 842 842 841 841 842 842 842 843 843 844 844 845 846 846 846 847 848 849 850 851 852 852 854 855 855 856 856 856 856 857 858 858 858 858 859 860 861
846 846 846 847 848 848 848 849 849 850 850 850 850 851 851 851 851 851 851 850 850 850 850 850 849 849 848 848 848 848 847 847 846 845 845 844 844 844 843 842 843 842 842 842 842 841 841 841 842 842 841 841 842 842 842 842 842 842 842 843 844 844 845 845 846 847 848 849 850 850 851 852 853 853 854 854 854 855 856 856 857 857 857 858 859
844 845 845 845 846 847 847 847 848 849 849 849 850 850 850 851 850 850 850 849 849 849 849 850 849 848 847 847 847 848 847 847 846 845 844 844 844 844 844 843 843 843 843 842 842 842 842 842 842 842 842 841 842 842 842 842 842 842 842 842 842 843 843 844 845 845 846 847 847 847 847 848 849 850 851 851 852 852 853 854 855 855 856 856 857
843 843 843 843 844 845 845 846 847 847 848 849 849 849 849 849 849 849 849 849 848 848 849 849 847 846 847 846 845 846 847 846 846 845 844 844 844 844 844 844 844 844 843 843 843 843 843 842 842 842 842 842 842 842 843 843 842 842 842 842 842 842 842 843 843 843 844 844 843 843 844 845 846 847 848 849 850 850 851 851 852 852 853 854 855
841 841 841 841 842 843 843 845 846 846 847 847 848 848 848 848 848 848 847 847 847 847 848 848 846 846 847 847 845 845 846 846 845 845 845 845 845 845 846 845 845 845 844 844 843 843 843 843 843 842 842 842 842 842 843 842 842 842 842 842 842 841 841 841 842 842 842 841 841 841 842 842 843 845 845 846 847 848 848 849 849 850 850 851 852
839 840 840 840 840 841 842 843 844 845 845 846 846 846 846 846 846 847 847 846 845 846 847 848 847 846 846 846 845 845 846 846 845 845 846 845 845 846 847 847 846 846 845 845 844 844 844 843 843 843 842 842 842 842 842 842 842 842 842 841 841 841 840 840 840 840 840 840 840 840 840 841 842 843 843 844 844 845 846 846 847 847 847 848 849
837 838 838 839 839 840 841 842 842 843 844 844 845 845 845 845 845 846 846 846 845 845 846 847 847 847 846 845 846 847 846 845 845 847 846 845 846 847 848 848 847 847 847 846 845 845 844 844 843 843 843 843 842 842 842 842 841 841 841 840 840 840 839 840 840 840 839 839 839 839 839 839 840 841 841 842 842 842 843 844 845 845 845 846 846
836 836 837 837 838 839 840 840 841 842 842 843 843 844 844 844 845 845 845 846 845 845 845 846 846 846 846 845 846 847 846 845 847 848 846 845 846 847 848 848 848 848 847 847 846 846 845 844 844 843 843 843 843 842 842 842 841 841 840 839 839 839 839 839 839 839 839 839 839 839 839 839 839 839 840 840 840 840 841 842 842 843 843 844 844
834 835 836 836 837 838 839 839 840 841 842 842 843 843 844 844 845 845 845 846 846 846 845 845 845 845 845 845 845 845 845 846 846 847 847 847 846 845 846 847 848 848 847 847 847 846 846 845 844 844 843 843 842 842 842 842 842 841 840 840 839 838 838 838 838 838 838 838 838 838 838 838 838 838 838 839 839 839 839 840 840 841 841 842 842
833 834 834 836 837 838 838 839 840 841 842 842 843 843 843 844 844 844 845 845 846 846 846 845 844 844 844 845 845 844 845 845 845 846 847 847 845 843 844 845 847 847 847 847 846 846 846 845 844 844 843 843 842 842 842 842 842 841 841 840 839 839 838 838 837 837 837 837 837 837 837 837 837 837 837 837 837 837 837 838 838 838 838 838 838
832 833 834 835 836 838 839 840 841 841 842 842 842 843 843 844 844 844 845 845 846 846 846 846 845 844 844 844 845 844 844 844 845 846 846 847 845 842 843 844 845 845 846 846 846 846 845 845 844 844 843 842 842 841 841 841 841 841 840 839 839 838 838 837 837 836 836 836 836 836 836 835 835 835 835 835 835 835 835 836 836 835 834 834 835
831 832 833 835 836 838 838 839 840 841 842 842 842 842 843 843 844 844 845 845 846 846 846 846 845 845 844 844 844 844 844 844 844 844 844 846 846 843 842 841 842 843 845 845 846 845 845 845 844 843 843 842 841 841 841 840 840 839 839 838 837 837 836 836 836 836 835 835 835 834 834 834 833 833 833 833 833 833 833 833 834 833 832 832 832
830 831 833 834 836 837 838 839 840 840 841 842 842 842 842 843 843 843 844 845 845 846 846 846 845 845 845 844 844 844 844 844 843 844 844 844 844 843 841 841 842 842 843 844 845 845 844 844 843 842 842 841 841 840 840 839 839 838 837 837 836 835 835 834 834 834 834 834 833 833 833 832 832 831 831 831 830 830 830 831 831 831 830 830 830
830 831 832 834 836 837 838 839 839 840 841 842 842 842 842 842 842 843 843 844 844 845 845 845 845 845 844 844 844 844 844 845 844 844 844 844 844 843 841 841 842 841 841 842 843 843 842 842 842 841 841 840 840 839 839 838 837 836 836 835 835 834 834 833 832 832 832 832 832 831 831 831 830 830 829 829 828 828 828 828 828 827 827 827 827
829 830 832 834 835 837 837 838 839 840 841 841 842 842 843 843 842 842 842 843 844 844 844 844 845 845 844 844 844 843 843 844 844 844 844 844 844 843 841 841 840 839 840 840 840 841 841 841 840 840 840 839 839 838 837 837 836 835 834 834 833 833 832 832 831 830 830 830 829 829 829 828 828 827 827 826 826 825 825 825 824 824 824 823 823
828 830 831 833 835 836 837 838 839 840 840 841 842 842 843 843 843 842 842 843 843 843 844 844 844 844 844 844 843 843 843 843 843 843 842 842 841 841 840 840 839 837 837 838 838 838 838 838 838 839 839 838 837 837 836 836 835 833 832 832 832 831 830 830 829 829 828 828 827 827 827 826 826 825 824 824 823 823 822 822 821 820 820 820 819
827 829 831 833 834 835 837 837 838 839 840 841 841 842 842 843 843 843 842 843 843 843 843 843 844 844 844 844 843 843 842 842 842 842 841 840 840 840 839 839 838 835 834 834 835 834 834 835 836 836 836 837 836 835 834 834 833 831 830 830 830 829 828 828 827 827 826 826 825 825 825 824 823 823 822 821 820 820 819 818 818 817 816 816 815
826 828 830 832 834 835 836 837 838 838 839 840 841 841 842 842 843 843 842 842 842 842 842 842 843 843 843 843 843 843 842 842 841 840 840 840 839 839 838 838 837 835 833 832 832 830 830 831 832 832 833 834 834 834 833 832 831 830 829 828 828 827 826 825 825 824 824 823 823 822 822 821 821 820 819 818 817 816 816 815 814 814 813 812 811
824 826 829 830 832 834 835 836 837 838 838 839 840 840 841 842 842 842 842 842 842 842 842 842 842 842 842 842 842 842 841 841 840 840 839 839 838 837 837 836 836 835 833 832 830 828 828 829 829 829 831 832 832 832 831 830 829 828 827 826 825 824 823 822 822 821 821 820 820 819 819 818 817 817 816 815 814 813 812 811 811 810 809 808 808
822 824 826 828 830 832 833 835 835 837 837 838 839 839 840 840 841 841 841 841 841 841 841 841 841 841 841 841 840 840 840 839 839 839 838 838 837 836 835 835 834 834 832 832 829 827 828 828 827 827 828 829 829 829 829 828 827 826 825 824 823 821 820 819 818 818 817 817 816 816 815 814 814 813 812 811 810 809 809 808 807 806 805 804 804
820 822 823 825 827 829 831 833 834 835 836 837 838 838 838 839 839 840 840 840 840 840 840 840 840 840 839 839 839 839 838 838 837 837 837 836 835 835 834 833 833 833 832 831 828 826 826 826 825 826 826 826 826 826 825 825 824 824 822 821 820 818 817 815 814 813 813 813 812 812 811 811 810 809 809 808 807 806 805 804 803 802 801 801 800
818 819 821 822 824 826 828 831 832 833 834 835 836 837 837 837 838 838 838 838 839 838 838 838 838 838 838 838 838 837 837 837 836 836 835 835 834 833 833 832 832 832 831 831 828 824 824 824 823 823 823 823 823 823 822 821 821 821 820 818 817 815 814 812 811 810 809 808 808 808 807 807 806 805 805 804 803 802 801 800 799 798 797 797 796
816 817 819 820 822 824 826 828 830 832 833 834 835 835 836 836 836 836 836 837 837 837 837 837 837 837 837 836 836 836 835 835 834 834 833 833 833 832 832 831 830 830 830 829 827 824 822 821 821 820 820 820 820 820 819 818 818 817 816 815 814 813 811 810 809 807 806 805 804 803 803 803 802 801 800 800 799 798 798 796 795 794 793 792 791
814 816 817 818 819 821 823 826 828 830 831 832 833 834 834 834 834 834 835 835 835 835 835 835 835 835 835 834 834 834 834 833 832 832 831 831 831 830 830 830 829 828 828 828 826 824 821 819 818 817 817 817 816 816 816 815 814 813 812 812 811 810 809 807 805 804 803 802 801 800 799 798 798 797 796 796 795 794 794 792 791 790 789 788 787
811 814 816 818 818 819 821 824 826 828 829 830 831 832 832 832 832 832 832 833 833 833 833 833 833 833 833 832 832 832 831 831 830 830 829 829 829 828 828 828 827 826 826 825 824 822 820 819 817 815 814 814 813 812 812 811 811 810 808 808 807 806 805 803 802 801 800 799 798 797 796 795 794 793 792 791 791 790 789 788 787 785 784 783 781
809 812 815 816 817 817 818 820 823 825 826 827 828 829 829 829 830 830 830 830 831 831 830 830 830 830 830 830 830 830 829 829 828 828 828 827 827 827 826 826 825 824 823 823 821 820 819 817 816 814 813 811 810 809 808 807 806 806 805 804 803 802 801 800 799 797 796 795 794 793 792 790 789 788 787 786 785 785 784 783 782 780 779 778 776
808 811 813 813 814 814 812 812 816 820 822 823 824 825 826 827 827 827 828 828 828 828 828 827 827 827 828 828 828 828 827 827 827 826 826 826 825 825 824 823 822 822 821 820 819 818 816 814 813 812 811 809 807 806 805 804 803 802 801 800 799 799 798 797 795 794 792 791 789 788 787 785 784 783 782 781 780 779 778 777 776 775 774 772 771
808 811 811 810 810 810 806 802 806 813 817 819 821 821 823 824 824 825 825 826 826 826 825 825 825 825 826 826 826 826 825 825 824 824 824 824 823 822 821 820 820 819 818 817 816 815 814 812 811 809 808 807 806 804 803 801 800 798 797 796 796 795 794 793 792 790 789 787 785 784 783 781 780 779 778 776 775 774 772 771 769 768 767 766 764
803 802 800 802 804 805 805 801 799 804 810 814 817 818 819 821 822 823 823 824 823 823 823 823 823 823 824 824 824 823 823 822 822 822 822 821 821 820 819 818 817 817 816 815 814 813 811 810 808 806 805 804 804 802 800 798 797 796 795 793 792 792 791 790 788 787 785 783 781 780 779 778 776 774 773 771 769 768 766 764 763 762 760 759 757
790 787 788 792 795 797 801 800 798 799 803 808 811 814 815 817 819 820 821 821 821 821 821 821 821 821 821 821 821 820 820 820 820 820 819 819 818 817 817 816 815 814 814 813 811 810 808 806 805 803 802 801 801 800 798 796 794 793 792 791 789 788 787 786 785 784 782 780 778 776 775 774 771 770 768 765 763 762 760 758 757 755 754 753 751
779 781 783 786 788 790 793 797 797 796 798 802 805 808 811 813 815 817 818 819 819 819 819 819 819 818 818 818 817 817 817 817 817 817 817 816 815 814 814 814 813 812 811 811 809 807 805 803 802 801 800 799 798 797 795 793 792 790 789 788 786 784 784 783 781 780 778 776 773 771 770 769 767 765 763 761 758 757 756 753 752 750 748 748 746
776 780 782 783 784 787 791 795 798 796 796 798 801 803 806 808 811 813 815 816 816 816 817 817 817 816 816 815 814 814 814 813 813 813 813 813 813 812 812 811 811 810 808 808 807 805 803 800 799 798 798 796 795 794 792 790 789 788 786 785 784 782 781 778 776 776 775 772 769 767 765 765 763 760 758 756 754 752 751 748 746 745 743 742 741
773 776 779 780 781 784 787 792 795 796 795 795 797 800 802 804 807 809 811 812 813 814 815 815 815 814 813 813 812 811 811 810 810 809 809 809 809 809 809 808 807 806 806 805 804 803 800 798 796 796 795 794 793 792 790 787 786 785 784 783 782 780 779 776 773 771 771 770 767 762 760 761 759 754 751 751 749 747 745 742 740 739 737 735 734
769 772 775 777 779 781 783 787 791 793 792 792 794 797 800 802 804 805 807 809 810 811 812 812 812 812 811 811 809 808 808 808 808 808 807 806 806 806 806 805 804 803 802 802 801 800 798 796 794 793 792 791 790 789 788 786 784 783 782 781 780 778 777 774 771 768 767 767 764 759 754 755 755 750 746 745 744 741 739 737 735 732 730 728 726
766 770 772 775 778 779 781 784 788 790 790 790 791 794 797 799 801 801 803 805 806 808 809 809 809 809 809 808 806 805 805 805 806 806 804 802 803 805 804 802 801 800 799 798 797 796 795 794 792 791 790 790 788 787 786 785 783 781 780 779 778 776 774 772 769 766 765 764 762 756 750 749 751 746 741 739 738 736 733 731 728 726 723 721 719
765 768 771 773 775 777 779 782 785 787 787 788 789 792 794 797 798 798 799 801 802 804 805 805 806 806 806 805 804 803 802 802 803 803 801 800 801 802 801 799 798 797 796 795 794 792 792 791 790 789 789 788 786 785 784 783 781 779 778 777 775 773 770 768 766 763 762 761 759 753 745 744 746 742 736 734 732 730 728 725 722 720 716 714 711
765 767 770 771 772 774 777 780 783 784 785 786 787 790 792 794 795 795 795 796 798 799 800 801 802 803 802 801 800 800 799 799 800 800 799 798 799 799 798 797 796 795 794 793 791 790 789 788 788 788 786 786 784 783 781 780 778 777 776 775 773 770 768 765 762 760 758 756 755 750 741 739 741 736 731 730 728 724 722 719 716 713 709 705 702
764 766 768 769 770 773 776 778 780 781 781 783 785 788 790 792 792 792 792 793 794 795 797 798 799 799 798 797 797 796 796 796 796 796 797 797 796 796 795 795 794 793 791 790 789 788 787 786 786 785 784 783 781 779 778 777 776 775 774 772 770 768 765 762 758 755 753 751 750 747 739 735 736 732 726 725 723 718 715 713 709 705 702 698 694
762 764 766 767 768 770 773 774 775 777 779 780 783 786 788 789 788 787 788 790 791 792 793 794 794 794 794 793 793 793 793 793 794 794 794 794 794 794 793 792 792 790 789 788 786 785 784 783 782 782 781 779 778 776 775 774 773 773 772 770 768 765 762 759 754 751 748 746 745 744 738 733 732 729 723 720 718 713 709 706 702 699 695 690 686
759 761 763 765 766 768 770 771 772 775 777 778 780 783 785 785 784 784 785 787 789 790 791 791 791 791 791 790 790 790 790 791 792 792 792 792 792 792 792 791 790 788 787 786 784 782 781 781 780 779 777 776 774 773 771 770 770 770 769 767 765 762 759 755 751 747 743 741 741 741 737 731 728 726 721 715 710 707 705 701 697 693 689 684 679
757 759 761 763 765 766 768 768 769 772 774 776 778 781 782 782 781 782 784 785 786 788 789 789 789 789 789 789 788 788 788 789 790 790 790 790 791 791 790 789 788 787 785 784 783 781 781 780 778 777 775 774 772 770 769 768 767 766 765 763 762 760 756 752 749 745 739 736 737 738 734 729 726 723 720 715 705 696 696 697 692 687 683 679 674
Wind_Speed
7 7 6 6 5 5 5 4 3 3 3 3 3 2 2 2 3 3 4 4 5 5 5 6 6 7 7 7 8 8 8 8 8 7 7 7 6 7 8 6 4 5 6 7 7 8 8 9 11 13 14 13 13 13 13 12 12 12 13 13 13 14 14 13 13 13 13 13 13 12 12 12 12 12 12 12 11 11 11 11 12 12 11 11 11
7 6 6 6 5 5 5 4 4 3 3 3 3 3 3 3 3 4 4 4 5 4 5 6 7 7 6 7 7 8 7 7 7 7 7 7 6 6 8 6 5 5 5 6 7 8 7 7 9 12 14 15 15 14 14 12 12 12 13 14 15 15 15 15 14 14 14 14 14 14 13 13 13 13 13 13 13 13 12 12 12 12 12 12 13
7 7 6 6 6 6 5 5 5 3 3 3 3 3 3 3 3 4 4 4 5 4 5 6 6 6 5 6 7 7 7 7 8 7 7 7 6 6 7 7 6 6 6 6 6 7 8 8 8 10 12 14 14 14 14 13 13 12 13 14 15 16 16 16 17 16 15 15 15 15 15 15 15 14 14 14 14 14 14 13 12 12 12 13 13
8 8 7 7 7 7 6 6 5 4 3 4 3 3 3 3 3 4 4 5 5 5 5 6 5 5 5 6 6 6 6 7 7 7 6 7 7 7 6 7 7 8 7 6 7 7 8 8 8 9 10 12 13 13 14 14 13 13 13 14 15 16 17 17 18 17 17 16 16 16 16 16 16 16 16 15 15 15 15 14 14 13 13 13 14
9 9 9 8 8 8 7 5 4 4 3 4 4 4 4 3 4 4 5 5 6 5 5 5 5 4 5 6 6 6 6 7 7 6 6 6 6 6 7 7 7 8 8 8 8 8 8 8 8 8 8 9 10 12 13 13 12 12 14 14 15 16 17 18 18 17 18 18 18 17 16 17 17 17 17 17 16 16 16 16 15 15 14 14 14
10 10 10 9 8 8 7 6 4 3 3 3 4 4 4 4 4 5 5 5 5 5 5 5 5 5 5 6 6 6 6 6 6 6 5 6 6 6 7 7 7 8 8 9 9 9 9 9 8 8 8 8 9 11 12 12 12 12 13 14 15 16 17 18 18 18 19 19 19 18 18 17 18 18 18 18 18 18 17 17 17 16 16 15 15
11 11 9 9 9 8 7 7 6 4 3 3 4 5 5 5 5 5 6 5 5 5 5 6 6 6 5 5 5 6 6 5 5 5 4 5 5 5 5 6 6 7 7 8 9 8 8 9 9 8 7 7 7 8 10 11 11 12 13 15 15 15 17 18 19 20 20 20 20 19 19 19 18 19 19 20 20 19 19 19 19 18 18 17 17
12 11 9 9 10 8 8 9 7 4 3 3 5 6 5 5 5 5 6 5 5 6 6 6 6 6 5 4 4 5 5 4 4 4 4 4 4 3 4 4 5 6 6 7 7 7 7 7 8 8 7 6 6 7 8 9 10 11 13 14 15 15 16 17 19 20 22 22 22 22 22 22 21 20 20 20 21 20 20 20 21 20 20 19 18
12 11 10 9 10 9 8 8 6 3 3 4 5 6 6 5 5 5 5 5 6 6 7 7 6 5 4 4 4 4 3 4 4 4 3 3 4 4 4 4 4 4 5 5 6 6 6 6 7 8 8 8 7 8 8 8 9 10 11 12 13 14 16 18 19 20 21 22 23 24 25 25 24 22 21 21 22 22 21 21 21 21 21 21 20
13 13 11 10 10 8 6 6 4 4 4 4 6 6 5 5 5 5 5 5 7 7 7 7 6 5 5 3 3 3 2 2 3 3 3 3 4 4 4 5 5 5 3 2 3 3 4 4 4 6 7 7 8 8 9 8 9 9 11 12 12 12 15 17 19 20 21 21 23 24 26 27 26 26 24 23 23 23 22 22 21 21 22 22 21
12 13 11 9 9 7 6 6 5 4 5 5 6 6 5 5 5 6 6 6 7 7 7 6 7 6 5 4 2 1 1 2 2 2 3 3 4 4 4 4 5 6 6 4 3 2 2 1 1 3 4 4 5 6 6 7 8 9 10 11 12 12 14 15 17 19 20 21 22 23 24 25 26 27 27 26 26 26 25 24 24 23 23 23 22
11 11 10 8 8 7 6 6 5 5 6 6 6 5 4 4 5 6 6 7 6 6 6 6 7 6 5 4 2 2 1 1 1 1 2 2 3 4 4 4 4 5 6 6 5 5 5 4 3 1 0 0 2 2 3 4 5 7 8 9 11 12 13 14 15 17 18 18 19 20 22 23 24 25 26 27 27 28 28 27 26 26 25 24 24
11 10 9 9 8 7 6 6 6 6 5 4 4 3 4 4 5 5 6 7 6 5 5 5 6 6 5 4 2 2 1 0 0 1 2 2 3 3 4 4 5 4 4 5 5 5 4 4 3 3 2 2 2 3 3 3 3 4 4 5 7 10 12 13 14 15 15 15 16 18 20 21 22 23 25 26 26 27 28 28 28 29 29 28 27
10 10 9 9 8 8 7 7 7 5 4 3 3 3 4 5 5 5 5 5 5 5 4 5 6 4 4 5 3 3 2 1 1 1 1 2 3 4 4 5 6 5 4 4 5 5 4 4 4 4 4 3 3 4 3 3 3 2 1 1 3 5 7 10 12 13 14 16 18 19 19 19 20 21 23 25 26 26 27 28 29 29 30 30 30
9 9 8 9 9 8 8 7 6 4 3 3 4 5 6 6 6 6 5 5 5 5 3 4 6 4 3 4 3 2 3 2 2 1 1 2 3 4 5 6 7 7 6 5 5 5 5 5 5 5 5 5 4 3 3 3 4 3 3 1 1 2 4 5 7 9 13 16 18 19 19 19 20 20 21 22 24 26 27 27 28 29 30 31 32
8 8 9 9 9 8 7 6 5 4 4 5 5 6 7 7 7 6 5 5 4 3 2 3 4 3 3 2 2 3 2 1 1 1 1 1 2 4 5 5 7 7 7 7 6 6 6 6 6 5 5 5 5 4 4 4 4 4 4 3 1 1 3 3 3 5 8 11 13 16 19 20 20 20 20 21 22 23 25 27 27 28 29 30 32
9 10 10 9 9 8 7 5 4 4 4 5 6 6 6 6 6 5 5 5 4 3 2 2 2 2 3 3 2 3 1 2 1 1 2 1 2 4 4 4 6 6 6 6 6 5 5 6 6 6 5 5 5 5 5 5 5 4 4 5 3 2 3 3 3 4 6 7 7 9 12 15 17 18 19 20 20 21 23 25 26 27 27 28 29
10 11 10 9 9 9 7 5 4 5 5 5 6 6 6 5 5 3 3 3 2 3 3 2 2 2 3 2 2 2 3 4 3 1 2 1 1 1 3 4 4 4 5 5 5 5 5 5 5 5 6 5 5 5 5 6 6 5 6 5 4 4 4 3 4 4 5 7 7 6 7 9 11 13 16 17 19 20 21 23 25 26 26 27 28
10 11 10 10 10 10 8 6 5 5 5 5 5 5 5 4 3 2 2 2 2 3 3 2 2 2 3 2 2 1 2 3 3 2 1 0 2 3 1 3 3 3 4 4 4 5 4 4 4 4 4 4 5 5 5 6 6 6 7 7 5 5 4 3 3 3 5 7 8 9 9 9 9 11 12 14 16 18 19 21 23 24 25 26 28
10 11 11 11 11 10 8 5 5 5 5 5 5 4 4 3 2 1 1 1 1 2 3 3 3 3 2 2 1 1 1 2 2 3 3 2 2 3 3 4 3 3 4 4 3 4 3 3 3 3 3 3 3 4 4 4 5 5 6 7 6 6 6 5 4 3 3 5 7 9 10 11 12 13 13 14 14 15 16 18 20 23 24 25 26
11 12 12 12 11 9 7 5 5 6 6 6 5 4 3 2 1 2 1 1 1 2 3 4 4 2 1 1 1 1 0 1 1 0 2 3 3 3 4 5 4 4 4 3 3 3 2 2 2 2 2 2 2 3 3 4 4 3 5 6 6 5 5 6 5 5 4 4 5 7 8 10 12 14 15 16 17 17 17 17 18 20 23 24 25
11 12 12 12 10 9 6 6 7 7 7 6 6 4 3 2 2 2 2 2 2 2 3 3 3 1 1 1 1 1 1 1 2 1 1 2 3 5 6 6 6 6 6 5 5 5 4 3 3 2 2 2 2 2 3 4 4 4 6 6 5 4 4 4 5 5 5 5 6 6 7 9 10 12 14 16 18 19 20 19 19 19 21 23 24
11 12 12 12 11 9 7 7 8 7 7 6 5 4 4 4 3 3 2 2 2 2 2 2 2 2 1 1 2 2 2 2 2 2 2 3 4 5 7 8 8 8 7 6 7 7 5 5 5 4 3 3 2 2 3 3 3 6 8 7 5 5 4 4 4 5 6 6 6 6 7 7 9 10 12 14 16 18 20 21 22 22 22 22 23
11 12 12 12 11 9 8 8 8 7 7 6 5 4 4 4 4 3 3 2 2 2 2 3 3 3 3 3 3 3 3 4 4 3 4 4 4 5 7 8 7 9 9 8 9 8 7 7 7 6 5 5 4 3 3 3 4 7 9 8 7 6 6 6 6 6 6 6 6 7 8 8 8 9 11 12 15 16 18 20 22 23 24 25 25
12 13 13 12 11 10 9 9 8 7 7 6 5 5 4 4 4 4 4 4 4 3 3 4 3 4 4 3 4 5 5 5 5 5 5 5 6 6 8 9 8 9 9 9 9 9 10 9 8 7 6 6 5 5 5 4 5 8 10 10 10 9 7 8 7 7 6 6 7 9 10 11 10 10 10 11 13 14 16 18 20 22 24 25 27
13 13 12 12 11 10 10 9 9 8 7 7 6 6 6 5 5 6 6 5 5 5 4 5 5 5 5 5 5 6 6 6 6 7 7 8 8 8 8 9 10 11 9 8 8 9 10 10 9 9 8 7 7 6 7 6 6 10 13 12 10 10 11 10 9 9 8 8 9 10 12 13 13 12 12 12 12 13 14 16 18 21 23 25 27
12 12 12 12 11 10 9 9 9 8 8 8 7 7 7 7 6 7 7 7 7 7 7 7 7 7 7 7 7 7 7 7 8 8 8 8 9 9 9 8 8 9 9 8 9 11 11 11 10 10 10 10 9 8 9 9 8 11 14 13 10 11 13 14 12 11 11 10 10 11 13 15 15 15 14 14 13 13 14 15 17 19 21 23 25
11 12 11 11 11 9 9 10 10 9 9 9 8 7 8 8 8 8 8 8 8 8 9 9 9 9 9 9 9 9 9 9 10 10 10 9 9 10 10 9 8 7 7 8 9 10 12 12 11 10 10 11 12 11 10 11 11 11 12 12 11 12 14 15 15 14 13 13 12 13 14 16 17 17 16 16 16 16 15 16 17 18 20 22 24
11 12 12 11 10 10 10 10 10 10 10 9 9 8 8 8 9 9 9 9 8 9 10 10 9 9 9 10 10 10 9 10 10 10 10 10 11 11 10 10 9 7 6 6 7 10 12 13 13 12 9 10 12 13 12 13 13 13 13 13 13 14 14 16 18 17 16 16 15 15 15 16 18 19 19 19 18 18 18 18 18 19 20 21 23
12 12 12 12 11 11 11 10 11 11 10 10 10 9 9 9 9 9 10 10 9 10 10 10 10 10 10 10 10 10 10 10 10 10 10 11 11 11 11 11 11 10 9 8 7 10 12 13 14 14 12 12 14 15 15 15 15 15 16 15 15 15 16 19 20 18 17 17 17 17 17 18 19 20 21 22 21 21 20 20 20 20 20 22 23
14 14 13 13 12 12 12 11 11 11 11 10 10 10 10 10 9 10 10 10 10 10 10 10 10 10 10 10 10 11 11 11 11 11 11 12 11 11 11 11 11 12 12 11 9 10 12 13 15 16 17 17 17 17 17 17 16 16 17 17 17 17 19 20 20 19 18 18 19 19 18 19 21 22 23 24 24 24 23 23 23 22 22 22 23
15 16 15 14 13 13 12 11 11 11 11 11 11 11 11 10 10 10 10 10 10 10 10 10 11 10 11 11 12 12 11 12 12 12 11 11 11 11 11 11 12 12 12 13 11 12 16 16 16 17 17 17 17 17 18 17 16 16 16 17 18 18 19 19 18 19 21 21 21 21 21 21 23 24 25 26 26 26 26 26 26 25 25 24 25
15 15 15 15 14 13 12 11 11 11 11 11 11 11 11 11 10 10 10 11 11 11 10 10 11 11 11 12 13 12 13 13 13 12 11 10 10 11 11 12 13 12 11 13 13 14 17 18 16 16 16 17 17 17 17 18 17 17 17 18 18 18 19 19 19 20 21 22 22 23 24 24 25 27 28 29 28 27 28 28 28 27 28 27 27
16 15 15 16 16 15 13 12 12 12 11 12 12 11 12 12 11 11 11 12 12 12 11 11 11 12 12 13 13 13 14 14 13 12 11 10 11 12 11 11 13 13 11 13 14 14 16 18 19 18 16 15 16 17 17 18 19 19 19 18 18 18 19 19 19 20 20 22 23 25 27 27 28 30 31 32 30 29 29 30 30 30 30 31 31
18 17 16 17 18 17 15 14 14 14 13 12 13 13 13 13 12 12 12 12 13 13 12 12 12 12 13 14 14 14 14 14 13 12 12 12 12 13 13 12 13 14 13 13 14 15 16 17 18 19 19 17 17 17 17 18 18 19 19 19 18 18 18 19 20 20 21 22 24 26 28 30 31 31 32 32 32 32 32 32 32 33 33 34 35
18 18 17 18 19 18 16 15 17 18 17 15 15 15 15 14 14 14 13 14 14 14 13 13 12 13 14 14 15 14 14 14 13 12 13 13 13 13 14 13 13 15 14 13 14 15 15 16 16 18 19 20 19 18 18 18 18 18 18 19 19 19 19 19 20 21 21 22 24 27 28 29 29 30 31 31 32 33 34 34 36 37 37 38 38
18 18 18 18 19 19 18 17 19 21 20 19 18 17 16 16 15 15 14 15 15 15 14 14 13 14 14 15 15 15 15 15 14 14 14 14 14 14 15 14 14 14 14 15 15 15 15 16 17 17 18 19 20 20 19 19 19 18 18 18 18 19 19 20 20 20 21 21 22 24 26 26 27 29 30 31 33 36 37 38 39 39 40 42 42
17 17 19 20 21 23 23 22 22 22 21 20 20 19 17 16 16 15 15 15 15 15 15 14 14 14 15 16 16 16 16 16 16 15 15 15 15 15 15 14 15 15 15 15 15 14 15 16 17 18 18 18 19 19 19 18 19 20 19 18 18 18 19 20 21 20 20 20 21 22 24 25 26 29 31 32 35 38 39 40 40 40 40 42 43
22 26 28 26 25 26 27 25 24 22 22 21 21 20 18 17 16 16 16 16 15 16 16 15 14 14 15 17 17 17 17 16 16 16 16 16 15 15 14 14 14 14 15 16 15 14 15 15 16 18 18 18 18 19 19 19 19 19 19 19 20 20 20 21 21 21 21 21 22 23 24 26 28 30 32 33 34 37 39 39 39 39 39 40 42
34 39 35 29 28 29 30 29 26 22 22 22 21 21 20 18 17 16 16 16 16 16 16 15 15 14 16 17 17 17 16 15 16 17 17 16 16 15 15 15 15 15 16 17 16 15 15 15 16 16 17 18 18 18 19 18 18 19 19 20 22 22 22 22 21 21 22 23 23 23 24 25 27 29 30 32 33 35 36 37 38 40 39 39 40
42 40 35 32 33 34 33 32 28 24 24 24 23 24 23 21 19 18 17 17 17 17 16 16 16 15 15 16 16 16 16 17 18 19 18 18 17 17 16 16 16 16 17 18 17 15 15 15 16 15 15 17 18 18 19 18 19 20 20 20 21 21 22 23 23 22 23 25 25 25 23 23 25 27 29 31 32 32 33 34 35 37 37 36 37
40 37 35 35 35 33 31 30 29 27 26 26 26 26 25 23 21 19 17 17 17 17 17 17 16 16 16 16 17 17 18 20 20 19 18 20 20 20 19 18 18 17 17 18 18 17 16 16 17 16 16 17 18 19 20 21 21 21 20 19 19 20 21 22 22 21 20 23 25 25 24 21 23 27 28 28 29 30 32 34 35 36 39 39 39
41 40 38 38 36 32 28 27 28 27 27 27 27 27 26 25 24 21 19 19 18 18 18 18 18 19 18 17 17 19 19 18 17 16 17 19 21 20 19 19 20 20 18 18 18 19 18 18 20 19 18 19 19 20 22 23 23 21 19 18 19 20 19 19 19 19 20 22 24 27 26 22 22 26 27 26 28 31 33 35 38 40 43 44 42
44 42 40 38 33 28 25 24 26 27 26 27 27 27 26 26 24 22 21 21 18 18 20 20 19 19 18 16 16 18 16 14 15 15 13 15 17 19 19 19 21 22 22 20 19 18 17 18 20 20 19 19 20 20 21 22 23 21 20 19 20 21 20 19 20 22 23 23 25 29 28 21 18 23 27 27 29 32 33 36 40 43 44 44 43
44 41 36 30 25 23 23 24 24 23 24 26 27 26 25 25 23 21 22 21 19 19 22 21 18 17 17 15 14 14 13 14 15 14 13 13 15 18 19 19 20 21 21 21 20 19 17 16 17 18 18 18 19 20 21 22 23 22 19 19 21 23 23 22 24 26 26 24 26 30 31 25 21 23 27 29 30 32 34 37 40 43 45 46 46
41 35 27 23 21 20 21 23 22 21 21 24 27 26 24 24 22 20 20 21 21 22 23 23 20 17 15 12 11 12 13 12 12 14 14 13 13 15 16 17 18 19 19 20 20 18 14 13 14 17 17 17 19 20 21 21 22 22 20 20 22 25 26 26 26 27 26 24 26 28 29 28 27 28 30 32 33 34 35 37 40 44 47 48 48
30 26 21 20 20 20 22 23 21 18 18 22 25 24 23 23 22 20 18 19 21 22 23 23 19 15 13 11 11 12 11 9 11 15 15 13 13 14 15 16 17 18 18 19 18 16 14 13 15 16 17 18 20 22 23 22 22 22 21 21 24 26 26 25 25 26 25 25 25 25 27 30 30 30 32 32 32 34 34 37 42 45 46 48 49
21 20 18 18 19 21 23 23 20 18 20 21 21 21 23 24 23 19 16 17 19 20 18 17 16 15 15 13 11 11 10 9 13 16 15 15 15 14 14 16 17 18 18 18 18 18 18 18 18 18 19 22 23 25 24 22 21 20 19 21 22 23 23 23 23 25 25 25 26 26 28 31 30 29 31 30 30 34 35 36 40 43 44 46 48
21 20 18 18 19 21 22 23 23 23 24 23 21 22 25 25 20 16 15 15 16 16 15 16 18 19 18 14 11 10 9 9 13 15 14 15 14 12 14 17 17 17 18 17 17 18 18 19 21 22 23 23 22 22 22 20 18 17 16 18 19 20 20 17 17 23 27 27 28 26 27 30 29 28 30 30 30 33 33 34 38 40 41 44 45
21 21 20 19 18 19 21 24 26 24 22 21 24 26 27 23 18 16 15 14 13 15 16 16 16 17 16 14 12 9 8 10 13 14 13 13 12 12 14 16 15 17 18 16 17 18 17 19 21 22 22 21 21 21 21 19 18 17 16 18 19 20 21 18 18 24 28 29 28 23 22 26 27 27 28 28 30 33 31 31 36 38 37 39 40
20 20 21 19 18 19 19 21 25 24 21 21 25 28 26 23 20 17 14 13 13 15 14 12 10 10 11 11 10 9 9 12 13 12 12 12 12 11 12 13 15 17 17 15 16 16 16 18 19 18 19 19 18 19 20 19 19 18 18 19 19 21 22 23 24 23 22 23 24 20 19 24 25 25 26 22 20 24 26 26 32 36 36 35 36
Wind_Direction
238 244 253 261 270 276 273 272 274 272 266 253 240 247 255 257 272 283 294 300 304 308 315 320 319 322 324 321 318 311 306 300 296 296 295 296 287 282 285 277 255 240 226 219 214 220 231 226 221 222 223 228 230 229 227 225 225 228 233 230 227 227 226 227 226 223 222 223 225 226 227 226 227 233 237 241 246 250 255 258 258 260 261 261 262
242 247 254 261 266 267 269 272 272 274 276 269 257 258 257 261 277 287 295 301 302 307 313 316 320 323 324 325 323 317 312 304 296 291 287 290 287 282 284 272 247 241 232 223 214 218 228 224 224 227 226 228 230 232 235 236 234 234 237 236 234 232 229 229 231 230 226 226 227 229 231 231 230 232 235 239 244 250 253 258 261 262 265 265 266
244 247 252 257 258 257 261 262 262 275 288 283 276 270 272 276 281 291 298 297 294 302 309 314 323 324 323 327 325 319 316 310 298 291 285 286 286 282 283 277 259 245 233 230 224 220 221 219 226 231 229 231 233 235 240 244 244 242 240 239 239 237 233 230 232 234 232 230 229 231 234 236 236 235 237 238 242 247 250 255 259 262 265 266 268
245 250 253 256 256 255 254 255 260 275 291 285 277 271 275 277 278 289 295 291 296 304 307 313 321 326 329 331 326 320 318 314 303 296 294 289 286 282 279 274 270 264 251 236 232 234 231 225 229 233 231 233 236 239 241 244 246 247 246 243 242 240 237 233 232 234 235 236 234 233 236 238 241 240 240 241 242 245 248 252 256 259 262 264 267
245 252 255 258 258 256 260 267 262 260 274 279 278 271 268 278 279 284 288 291 300 305 306 312 321 327 333 333 326 321 321 316 311 309 305 297 290 287 283 273 268 272 271 259 244 242 243 240 239 241 240 238 237 238 241 245 246 247 248 246 245 244 242 238 234 234 235 239 239 238 237 238 241 243 244 245 245 246 248 251 254 257 260 262 265
246 255 257 258 257 257 262 260 239 237 254 261 272 276 275 286 285 287 292 294 299 305 307 314 321 324 330 332 326 323 320 318 322 319 312 308 302 295 289 281 272 269 271 272 264 252 248 246 244 244 246 247 242 237 238 245 248 250 252 249 246 246 245 242 239 237 236 238 240 241 241 241 241 242 244 246 247 249 250 252 255 257 259 261 263
248 256 255 256 257 258 255 248 250 255 251 252 271 279 282 289 288 291 296 297 300 302 303 309 317 322 330 331 326 324 318 320 326 322 320 318 309 305 300 292 284 274 265 268 271 264 254 247 244 243 238 235 234 229 230 240 247 249 253 254 252 248 245 245 242 240 238 237 238 239 241 242 244 245 245 245 246 249 252 254 255 257 259 260 260
253 254 250 252 257 257 250 255 268 267 245 258 274 278 283 286 284 291 297 297 297 297 299 304 311 318 323 326 325 322 318 325 329 328 339 334 323 327 319 308 300 289 272 263 261 264 265 251 239 237 227 216 213 211 215 227 237 239 241 247 249 248 247 246 244 242 242 241 240 240 242 243 243 244 246 247 247 247 250 253 254 256 257 258 258
256 255 251 254 259 255 253 263 268 252 249 263 271 279 287 287 283 287 295 294 292 295 298 301 307 312 314 320 323 317 320 337 338 337 340 337 345 352 347 346 336 313 286 266 256 258 271 259 233 228 224 222 222 217 217 223 229 232 235 238 240 240 244 247 247 247 247 246 245 245 246 246 244 243 245 249 250 249 248 249 252 254 255 255 256
257 259 255 255 257 252 256 261 245 237 247 249 264 282 289 287 285 282 285 289 292 296 299 303 307 306 305 307 310 310 326 350 345 345 337 345 359 354 3 7 0 2 354 309 275 261 269 265 237 225 221 221 229 228 227 232 235 238 239 239 237 235 238 244 247 249 249 248 249 249 249 249 249 247 245 248 251 252 251 250 250 252 254 255 254
254 260 255 246 244 245 247 242 231 233 234 246 271 287 289 284 282 282 281 279 285 294 298 300 299 299 301 299 284 263 334 9 354 356 348 359 359 343 3 17 8 16 24 27 20 17 3 337 229 229 224 226 249 249 242 245 245 245 244 242 240 239 239 241 245 249 251 248 247 250 251 251 252 251 248 248 249 250 252 254 254 253 254 255 255
251 256 249 233 234 241 231 220 220 225 229 258 285 293 294 287 280 281 281 276 274 279 286 292 297 297 290 285 259 216 163 52 5 7 357 4 7 346 357 15 13 15 22 31 33 38 42 42 48 43 205 230 302 295 273 267 259 253 249 242 240 240 239 240 242 245 250 250 249 252 254 254 254 254 253 252 251 250 250 253 256 257 257 256 256
252 248 237 228 232 226 211 205 207 217 232 266 290 290 289 282 275 272 272 276 273 265 272 283 286 284 279 277 247 218 231 79 309 9 1 4 27 19 13 17 20 19 22 31 33 36 38 32 30 27 26 24 20 19 1 342 322 286 266 250 244 243 243 243 242 243 247 250 253 254 254 255 258 257 254 253 253 252 251 252 253 256 258 259 258
248 244 233 226 218 205 202 203 204 213 234 257 267 271 269 257 254 255 260 268 271 269 265 267 277 293 303 291 259 216 214 240 294 331 34 17 35 49 42 34 33 29 24 33 40 40 35 30 27 21 20 18 22 34 47 39 4 350 8 307 250 246 246 246 243 242 243 242 245 247 247 251 257 258 258 256 255 255 255 254 254 254 256 257 259
237 240 226 211 203 199 195 194 203 217 233 244 252 256 250 241 238 241 254 258 258 264 258 267 291 315 291 272 281 252 209 206 265 289 34 23 32 50 50 43 41 40 36 37 41 45 46 45 41 31 24 23 25 35 56 52 33 41 43 349 225 233 238 240 243 242 241 241 244 246 245 247 251 254 258 259 259 258 257 256 254 254 255 255 257
225 220 209 204 205 200 187 184 205 221 231 246 249 246 242 240 238 236 244 256 264 270 265 276 299 310 281 272 294 275 235 199 250 274 283 10 33 39 47 48 45 43 41 43 42 43 48 49 49 43 31 27 28 30 44 46 50 55 19 334 290 247 244 236 247 247 247 250 253 252 249 249 249 251 253 256 260 260 257 255 253 252 253 254 255
216 207 203 208 206 194 184 185 206 218 230 243 245 245 245 241 238 234 236 256 281 292 282 274 281 293 294 302 283 262 339 10 336 289 281 302 33 42 46 41 42 44 41 43 44 42 45 46 49 51 44 37 32 31 39 40 50 64 23 338 319 310 297 276 264 254 253 262 270 264 256 254 254 254 253 254 257 259 258 256 253 253 252 252 253
214 207 205 206 198 187 188 194 206 217 224 234 239 244 248 239 230 231 233 241 270 279 272 260 254 258 261 272 287 310 358 344 321 302 284 318 1 37 57 38 31 44 43 42 44 39 38 41 42 46 47 45 39 35 37 37 42 52 37 6 343 335 325 310 294 269 254 256 264 267 263 264 263 260 258 256 257 258 257 256 256 256 257 257 256
212 208 208 202 192 190 194 197 209 220 221 230 239 245 251 245 233 228 220 207 220 256 269 257 244 244 229 217 226 294 1 343 339 347 314 340 311 279 344 25 11 22 30 29 35 34 31 30 27 29 36 37 34 30 28 31 34 35 29 25 25 19 8 354 330 295 270 261 260 261 260 262 264 262 262 261 261 261 259 257 257 259 260 259 259
207 207 206 197 192 194 196 200 217 222 222 229 238 245 253 255 245 213 179 179 208 245 264 264 257 239 207 208 199 157 69 47 26 354 319 303 282 265 300 338 330 343 4 2 11 18 17 18 9 358 5 16 17 15 13 13 23 26 13 13 27 30 28 28 19 356 319 290 275 272 269 265 263 263 263 263 263 264 263 263 262 260 258 256 257
208 208 206 198 193 193 198 213 224 219 219 225 225 228 236 239 232 205 184 192 207 231 239 245 260 259 187 189 174 145 138 108 113 348 312 302 304 294 301 308 297 308 325 328 347 346 333 344 339 325 341 354 356 0 4 359 8 17 349 348 9 17 21 27 25 20 2 336 317 301 290 282 275 270 269 267 265 264 264 266 266 263 260 258 257
212 212 207 200 194 195 208 224 223 217 219 222 219 216 217 210 198 192 197 205 202 215 232 244 265 278 166 159 159 183 260 258 243 268 301 281 292 297 296 299 304 313 307 304 324 319 299 301 292 283 305 310 325 337 345 349 351 353 336 328 343 354 358 8 7 6 2 349 336 323 311 301 291 283 278 275 271 268 265 264 264 263 262 263 261
212 211 204 200 197 200 215 223 217 214 217 220 223 222 213 199 185 181 188 201 209 216 239 265 273 269 232 197 210 231 260 272 273 292 295 281 291 297 302 311 314 310 302 298 307 301 282 275 266 263 276 283 293 304 323 327 313 334 342 333 322 324 327 335 342 344 347 348 343 334 324 312 301 293 286 281 278 275 271 268 265 262 261 261 262
209 208 206 205 207 211 215 214 211 210 213 217 224 227 220 201 188 185 186 194 215 229 246 264 266 261 250 233 241 253 254 260 264 263 267 283 296 291 294 304 300 298 303 303 301 296 287 280 267 260 266 273 272 273 305 309 281 308 334 334 314 304 301 308 318 323 330 342 348 348 344 335 322 309 299 290 284 280 275 271 268 265 262 260 260
209 209 209 209 212 215 210 206 208 209 211 213 214 216 220 214 202 196 197 202 212 222 240 253 255 258 257 249 253 263 261 254 257 262 265 267 268 273 286 295 293 295 301 297 295 294 286 282 272 261 263 267 264 261 280 297 283 291 314 324 312 299 291 294 301 307 312 321 333 343 345 344 340 330 319 308 298 290 283 277 272 269 265 262 260
215 213 210 207 211 216 209 203 205 206 209 211 211 211 214 220 218 210 209 210 215 221 234 247 252 255 262 264 263 266 268 265 262 264 270 272 272 280 290 292 292 293 292 282 281 286 284 282 277 268 264 260 257 257 267 282 283 288 306 316 306 293 291 291 288 291 300 307 316 328 335 339 341 336 329 322 312 304 295 288 281 276 272 267 262
220 215 209 206 212 214 206 203 205 206 208 209 210 213 216 222 225 223 223 221 223 229 236 241 247 251 255 262 267 270 270 270 270 269 272 276 277 282 286 289 293 294 294 289 283 284 288 289 280 266 261 262 263 262 263 273 280 286 302 309 292 281 286 288 287 284 290 297 302 313 324 331 335 335 333 329 323 315 307 299 292 286 281 275 269
216 211 204 203 211 212 206 206 206 207 208 208 211 215 217 223 228 229 232 231 232 238 243 245 247 250 254 259 263 268 270 270 272 273 273 273 271 273 276 280 290 296 296 295 290 290 293 296 290 271 259 263 272 277 272 274 278 280 290 293 281 279 280 281 287 288 286 291 294 301 314 324 329 331 331 330 327 323 316 309 301 295 289 283 278
205 202 199 198 204 207 208 210 208 211 212 210 212 216 217 224 232 236 239 243 244 246 251 254 255 256 259 262 263 266 269 268 270 272 271 269 268 270 274 277 285 293 297 297 294 295 298 299 295 289 275 263 270 281 281 278 280 278 282 284 279 279 275 273 282 288 285 286 289 293 304 317 324 326 327 327 326 323 320 315 309 302 295 289 284
197 194 194 195 199 204 209 212 211 213 216 214 215 217 219 227 236 243 246 250 252 252 256 259 262 264 263 263 263 264 265 265 267 269 268 266 266 269 273 275 276 279 287 296 293 289 293 293 291 292 292 285 282 284 283 282 281 277 278 282 278 275 273 274 281 286 283 281 284 287 295 307 315 319 321 323 322 321 318 316 312 308 302 295 288
193 191 191 195 199 202 207 213 214 215 218 220 220 219 222 229 237 245 248 249 250 253 256 258 260 263 263 261 261 262 264 264 264 266 265 264 264 267 271 272 272 273 278 286 290 288 289 290 290 291 292 293 292 290 288 285 281 277 275 277 276 273 274 279 286 290 287 284 284 284 288 298 307 311 313 315 316 316 315 314 311 308 305 301 295
193 192 195 197 199 201 206 213 214 217 221 224 226 226 227 231 238 248 253 252 250 250 253 259 260 260 260 261 261 261 262 261 262 264 265 263 264 268 273 275 276 276 274 277 282 289 291 290 290 290 291 292 292 289 288 286 282 279 275 273 273 273 273 277 283 285 284 283 283 283 286 293 299 303 305 307 308 310 311 310 308 305 303 302 300
195 193 197 197 196 198 205 214 217 220 224 227 231 232 232 235 239 247 253 253 252 251 252 256 258 259 260 261 262 261 260 260 261 264 265 266 268 271 273 274 276 278 275 273 277 286 292 293 292 290 290 289 287 283 282 283 283 283 279 273 271 271 272 274 276 276 277 278 279 280 284 290 296 299 301 301 300 302 305 306 304 302 300 298 298
198 197 200 202 201 201 203 212 219 222 224 229 235 236 237 240 240 244 250 250 248 248 250 253 254 257 260 260 261 261 259 260 259 262 266 269 271 273 271 270 273 276 273 269 271 278 288 293 295 294 292 288 285 283 282 283 284 283 281 278 275 273 272 272 273 274 274 274 275 277 282 288 293 296 298 297 297 297 299 301 301 299 298 296 294
205 207 210 213 213 209 207 213 224 229 229 231 234 236 238 240 240 243 247 248 248 247 247 249 252 256 259 259 259 260 259 258 255 257 265 269 271 272 271 269 269 270 271 266 264 270 281 288 290 293 295 293 289 287 285 283 281 280 281 283 280 275 273 273 274 276 275 274 275 278 283 289 293 296 297 296 295 295 296 297 298 297 295 294 293
205 208 213 218 217 212 207 215 232 238 235 232 232 235 236 237 239 242 244 247 249 248 246 247 251 256 258 257 257 258 258 258 257 259 264 270 274 274 274 275 271 269 269 265 260 262 272 279 279 282 288 291 292 290 289 287 284 280 282 283 279 275 275 277 279 280 278 277 276 278 284 290 294 296 297 296 295 294 293 293 293 294 294 293 292
202 205 210 213 213 210 203 205 223 233 234 230 231 232 234 236 238 240 244 247 247 247 245 245 249 255 258 258 259 259 260 260 260 263 269 275 280 280 279 282 282 276 270 266 265 261 263 270 274 275 277 282 287 289 290 289 288 288 286 281 277 277 279 283 284 284 284 282 281 282 287 292 295 297 297 295 293 291 290 288 288 290 292 292 290
199 203 207 210 214 216 211 203 206 221 230 230 230 230 232 236 238 239 242 244 245 247 246 246 250 255 259 260 260 260 261 262 264 268 274 280 283 283 282 285 288 285 275 269 269 265 264 268 273 276 276 276 280 286 288 286 288 292 291 284 280 280 285 289 290 290 290 289 287 285 285 288 290 293 293 291 290 290 288 287 285 285 289 291 289
203 206 207 212 220 227 225 213 202 208 222 226 227 229 231 234 237 239 241 243 246 247 248 251 253 256 260 262 262 262 262 264 269 273 277 280 283 285 285 288 289 286 281 278 275 271 271 274 276 278 279 277 278 284 287 285 285 288 287 286 287 287 289 293 293 294 295 292 290 286 284 285 286 288 290 290 290 289 288 288 288 285 286 288 288
212 210 208 213 220 225 228 223 211 206 214 219 221 225 228 231 234 238 243 246 248 250 252 254 254 257 262 263 265 266 266 267 270 273 278 282 284 283 284 287 288 287 287 286 283 278 277 277 279 281 282 282 282 285 288 286 286 289 289 289 290 291 293 294 293 294 294 292 290 287 285 287 288 288 289 289 288 288 288 289 289 287 285 286 287
212 210 210 214 218 220 224 224 218 210 212 216 218 223 228 230 231 238 245 249 251 254 256 257 257 259 261 264 267 268 270 271 269 271 280 287 285 280 277 280 285 288 290 290 287 283 279 278 281 282 282 285 286 288 290 290 291 295 297 294 291 293 297 296 292 292 292 291 290 288 286 287 287 287 287 287 286 288 289 288 287 287 287 286 288
208 209 214 216 216 218 222 225 223 217 216 220 223 225 228 228 229 236 245 249 251 255 258 262 264 265 267 271 273 272 273 272 269 274 285 286 283 280 275 273 277 282 286 288 286 282 280 281 283 282 282 286 289 291 293 295 298 301 300 296 294 298 300 297 294 295 294 294 294 291 288 288 287 286 285 284 287 290 291 289 288 289 289 286 285
209 212 217 217 217 217 217 221 224 221 221 225 227 228 228 229 231 236 243 248 250 253 259 264 266 270 275 274 273 276 277 272 274 285 289 284 285 284 275 269 274 279 280 280 279 280 282 285 285 285 285 288 290 291 292 297 302 304 303 299 297 299 299 297 298 299 297 299 300 295 290 288 286 286 284 284 288 291 291 290 291 291 289 286 284
212 214 217 218 217 214 211 216 223 224 226 229 230 230 230 231 233 236 242 248 250 252 258 264 267 272 276 274 275 281 281 277 283 288 285 286 291 289 280 275 278 282 282 280 277 277 280 283 284 286 287 289 291 290 292 298 303 305 304 300 296 296 295 293 294 295 297 301 302 295 290 287 284 283 284 285 289 291 292 293 293 292 291 289 286
214 214 215 216 214 212 212 217 223 226 229 232 231 231 233 233 234 235 239 243 246 251 256 261 266 270 272 272 275 279 283 289 287 279 280 290 288 279 277 280 282 284 285 285 282 280 280 279 280 283 287 290 290 289 293 298 300 301 301 298 296 296 294 292 292 294 298 301 297 292 289 289 288 286 286 288 291 293 293 293 294 293 292 290 287
216 215 214 213 213 215 216 218 223 225 228 233 233 232 231 232 234 237 240 242 245 250 256 261 264 265 264 262 266 276 287 291 278 274 286 290 278 270 273 279 281 282 283 283 281 280 276 269 273 281 285 287 287 289 295 299 298 297 297 294 293 295 295 294 293 292 293 292 288 287 287 290 294 294 292 294 295 294 292 292 294 294 292 289 285
218 216 216 214 212 216 219 219 220 221 224 232 235 231 227 229 234 240 242 243 247 252 256 259 259 256 256 263 272 281 287 277 265 278 288 279 268 273 277 277 279 281 282 280 276 276 277 276 278 284 287 288 288 290 295 298 295 294 294 292 291 292 293 293 291 289 289 287 284 284 286 291 296 296 293 294 295 294 293 294 296 295 291 287 285
219 216 218 217 216 221 224 221 220 221 224 230 232 228 225 226 231 237 242 244 247 248 247 246 248 252 260 271 277 277 275 266 266 277 279 271 272 276 274 275 279 282 283 282 278 279 285 288 289 290 292 293 292 292 296 298 297 294 293 291 289 288 288 288 288 288 290 290 289 288 288 292 296 294 292 293 293 293 295 296 296 296 293 289 286
222 220 223 223 221 221 218 215 218 224 226 228 227 223 222 223 225 234 240 239 236 233 231 238 247 253 260 266 268 270 268 257 260 268 270 271 275 273 271 276 281 283 285 284 284 286 290 294 297 297 297 297 298 300 301 302 301 297 290 285 286 287 286 285 287 291 292 293 292 289 287 290 294 293 292 295 295 293 295 297 298 297 294 290 288
227 227 229 228 219 212 210 212 216 219 219 222 224 221 219 222 230 239 236 224 223 233 241 245 247 251 259 263 263 261 248 239 251 262 264 267 271 270 273 278 280 282 283 284 288 292 296 298 298 297 298 300 303 304 301 300 300 293 278 273 280 288 289 286 291 295 294 294 293 289 285 289 293 294 296 298 297 293 292 294 297 297 294 292 290
227 227 228 226 216 210 209 209 213 214 211 215 223 224 224 231 238 236 225 218 229 242 246 244 246 256 266 268 265 254 236 235 247 256 258 263 266 265 270 277 279 281 284 288 290 292 295 295 293 294 297 300 301 300 296 294 295 289 279 275 281 288 290 291 295 297 296 295 296 294 290 292 294 297 300 303 301 296 293 292 296 298 295 292 291